Location: Akron Fire Department Station 11
(41.1400°N, 81.5503°W)
Time: 20:18:42
(UTC+00:00)

ISS - Visible Passes

Search period start: 21 September 2020 00:00
Search period end: 01 October 2020 00:00
Orbit: 419 x 420 km, 51.6° (Epoch: 21 September)

Date Brightness Start Highest point End Pass type
(mag) Time Alt. Az. Time Alt. Az. Time Alt. Az.
21 Sep -3.1 00:15:39 10° WSW 00:18:58 56° NNW 00:22:18 10° NE visible
21 Sep -0.9 01:54:02 10° WNW 01:55:46 16° NNW 01:55:46 16° NNW visible
22 Sep -1.4 01:06:07 10° WNW 01:08:44 20° NNW 01:10:21 15° NNE visible
23 Sep -1.8 00:18:15 10° W 00:21:09 26° NNW 00:24:05 10° NE visible
23 Sep -0.6 01:56:58 10° NW 01:57:49 13° NNW 01:57:49 13° NNW visible
24 Sep -1.2 01:09:08 10° NW 01:11:10 15° N 01:12:14 13° NNE visible
25 Sep -1.3 00:21:11 10° WNW 00:23:30 17° NNW 00:25:48 10° NNE visible
25 Sep -0.4 01:59:19 10° NNW 01:59:34 11° NNW 01:59:34 11° NNW visible
26 Sep -1.2 01:11:46 10° NNW 01:13:37 14° N 01:13:54 14° N visible
27 Sep -1.1 00:24:03 10° NW 00:25:55 14° N 00:27:47 10° NNE visible
27 Sep -0.3 02:01:06 10° NNW 02:01:10 10° NNW 02:01:10 10° NNW visible
28 Sep -1.3 01:13:45 10° NNW 01:15:28 16° N 01:15:28 16° N visible
29 Sep -1.4 00:26:18 10° NNW 00:28:18 15° N 00:29:46 12° NE visible
29 Sep -0.2 02:02:43 10° NW 02:02:43 10° NW 02:02:43 10° NW visible
29 Sep -1.3 23:38:42 10° NNW 23:40:34 14° N 23:42:25 10° NE visible
30 Sep -1.5 01:15:22 10° NW 01:17:01 20° NNW 01:17:01 20° NNW visible
